Time,TemperatureF,DewpointF,PressureIn,WindDirection,WindDirectionDegrees,WindSpeedMPH,WindSpeedGustMPH,Humidity,HourlyPrecipIn,Conditions,Clouds,dailyrainin,SoftwareType,DateUTC
2013-02-09 00:00:00,42.6,40.2,29.66,NNW,337,0.0,0.0,91,0.00,,,0.00,WUHU21623XXSP,2013-02-09 05:00:00,
2013-02-09 00:05:00,42.4,40.0,29.65,NNW,337,0.0,0.0,91,0.00,,,0.00,WUHU21623XXSP,2013-02-09 05:05:00,
2013-02-09 00:10:00,42.4,40.0,29.65,NNW,337,0.0,0.0,91,0.00,,,0.00,WUHU21623XXSP,2013-02-09 05:10:00,
2013-02-09 00:15:00,42.4,40.0,29.66,NNW,337,0.0,0.0,91,0.00,,,0.00,WUHU21623XXSP,2013-02-09 05:15:00,
2013-02-09 00:20:00,42.4,40.0,29.66,NNW,337,0.0,0.0,91,0.00,,,0.00,WUHU21623XXSP,2013-02-09 05:20:00,
2013-02-09 00:25:00,42.1,39.6,29.65,NNW,337,0.0,0.0,91,0.00,,,0.00,WUHU21623XXSP,2013-02-09 05:25:00,
2013-02-09 00:30:00,42.1,39.6,29.65,NNW,337,0.0,0.0,91,0.00,,,0.00,WUHU21623XXSP,2013-02-09 05:30:00,
2013-02-09 00:35:00,41.9,39.5,29.65,NNW,337,0.0,0.0,91,0.00,,,0.00,WUHU21623XXSP,2013-02-09 05:35:00,
2013-02-09 00:40:00,41.5,39.1,29.65,NNW,337,0.0,0.0,91,0.00,,,0.00,WUHU21623XXSP,2013-02-09 05:40:00,
2013-02-09 00:45:00,41.0,38.3,29.65,NNW,337,0.0,0.0,90,0.00,,,0.00,WUHU21623XXSP,2013-02-09 05:45:00,
2013-02-09 00:50:00,40.8,38.4,29.65,NNW,337,0.0,0.0,91,0.00,,,0.00,WUHU21623XXSP,2013-02-09 05:50:00,
2013-02-09 00:55:00,40.8,38.4,29.65,NNW,337,0.0,0.0,91,0.00,,,0.00,WUHU21623XXSP,2013-02-09 05:55:00,
2013-02-09 01:00:00,40.8,38.4,29.65,NNW,337,0.0,0.0,91,0.00,,,0.00,WUHU21623XXSP,2013-02-09 06:00:00,
2013-02-09 01:05:00,40.8,38.4,29.65,NNW,337,0.0,0.0,91,0.00,,,0.00,WUHU21623XXSP,2013-02-09 06:05:00,
2013-02-09 01:10:00,40.8,38.4,29.65,NNW,337,0.0,0.0,91,0.00,,,0.00,WUHU21623XXSP,2013-02-09 06:10:00,
2013-02-09 01:15:00,40.8,38.4,29.65,NNW,337,0.0,0.0,91,0.00,,,0.00,WUHU21623XXSP,2013-02-09 06:15:00,
2013-02-09 01:20:00,40.6,38.2,29.65,NNW,337,0.0,0.0,91,0.00,,,0.00,WUHU21623XXSP,2013-02-09 06:20:00,
2013-02-09 01:25:00,40.1,37.7,29.64,NNW,337,0.0,0.0,91,0.00,,,0.00,WUHU21623XXSP,2013-02-09 06:25:00,
2013-02-09 01:30:00,39.9,37.5,29.65,NNW,337,0.0,0.0,91,0.00,,,0.00,WUHU21623XXSP,2013-02-09 06:30:00,
2013-02-09 01:35:00,39.9,37.5,29.65,NNW,337,0.0,0.0,91,0.00,,,0.00,WUHU21623XXSP,2013-02-09 06:35:00,
2013-02-09 01:40:00,39.7,37.3,29.65,NNW,337,0.0,0.0,91,0.00,,,0.00,WUHU21623XXSP,2013-02-09 06:40:00,
2013-02-09 01:45:00,39.4,37.0,29.65,NNW,337,0.0,0.0,91,0.00,,,0.00,WUHU21623XXSP,2013-02-09 06:45:00,
2013-02-09 01:50:00,39.0,36.6,29.66,NNW,337,0.0,0.0,91,0.00,,,0.00,WUHU21623XXSP,2013-02-09 06:50:00,
2013-02-09 01:55:00,38.8,36.4,29.66,NNW,337,0.0,0.0,91,0.00,,,0.00,WUHU21623XXSP,2013-02-09 06:55:00,
2013-02-09 02:00:00,38.8,36.4,29.66,NNW,337,0.0,0.0,91,0.00,,,0.00,WUHU21623XXSP,2013-02-09 07:00:00,
2013-02-09 02:05:00,38.7,36.2,29.66,NNW,337,0.0,0.0,91,0.00,,,0.00,WUHU21623XXSP,2013-02-09 07:05:00,
2013-02-09 02:10:00,38.1,35.7,29.67,NNW,337,0.0,0.0,91,0.00,,,0.00,WUHU21623XXSP,2013-02-09 07:10:00,
2013-02-09 02:15:00,37.9,35.5,29.67,NNW,337,0.0,0.0,91,0.00,,,0.00,WUHU21623XXSP,2013-02-09 07:15:00,
2013-02-09 02:20:00,37.6,35.1,29.67,NNW,337,0.0,0.0,91,0.00,,,0.00,WUHU21623XXSP,2013-02-09 07:20:00,
2013-02-09 02:25:00,37.2,34.8,29.67,NNW,337,0.0,0.0,91,0.00,,,0.00,WUHU21623XXSP,2013-02-09 07:25:00,
2013-02-09 02:30:00,37.2,34.8,29.66,NNW,337,0.0,0.0,91,0.00,,,0.00,WUHU21623XXSP,2013-02-09 07:30:00,
2013-02-09 02:35:00,37.2,34.8,29.66,NNW,337,0.0,0.0,91,0.00,,,0.00,WUHU21623XXSP,2013-02-09 07:35:00,
2013-02-09 02:40:00,36.9,34.4,29.67,NNW,337,0.0,0.0,91,0.00,,,0.00,WUHU21623XXSP,2013-02-09 07:40:00,
2013-02-09 02:45:00,36.7,34.3,29.67,NNW,337,0.0,0.0,91,0.00,,,0.00,WUHU21623XXSP,2013-02-09 07:45:00,
2013-02-09 02:50:00,36.5,34.1,29.67,NNW,337,0.0,0.0,91,0.00,,,0.00,WUHU21623XXSP,2013-02-09 07:50:00,
2013-02-09 02:55:00,36.5,34.1,29.68,NNW,337,0.0,0.0,91,0.00,,,0.00,WUHU21623XXSP,2013-02-09 07:55:00,
2013-02-09 03:00:00,36.5,34.1,29.68,NNW,337,0.0,0.0,91,0.00,,,0.00,WUHU21623XXSP,2013-02-09 08:00:00,
2013-02-09 03:05:00,36.7,34.3,29.68,NNW,337,0.0,0.0,91,0.00,,,0.00,WUHU21623XXSP,2013-02-09 08:05:00,
2013-02-09 03:10:00,36.9,34.4,29.69,NNW,337,0.0,0.0,91,0.00,,,0.00,WUHU21623XXSP,2013-02-09 08:10:00,
2013-02-09 03:15:00,36.9,34.4,29.69,NNW,337,0.0,0.0,91,0.00,,,0.00,WUHU21623XXSP,2013-02-09 08:15:00,
2013-02-09 03:20:00,37.0,34.6,29.69,NNW,337,0.0,0.0,91,0.00,,,0.00,WUHU21623XXSP,2013-02-09 08:20:00,
2013-02-09 03:26:00,37.0,34.6,29.70,NNW,337,0.0,1.3,91,0.00,,,0.00,WUHU21623XXSP,2013-02-09 08:26:00,
2013-02-09 03:31:00,37.0,34.6,29.70,NNW,337,0.0,1.3,91,0.00,,,0.00,WUHU21623XXSP,2013-02-09 08:31:00,
2013-02-09 03:36:00,36.9,34.4,29.70,NNW,337,0.0,0.0,91,0.00,,,0.00,WUHU21623XXSP,2013-02-09 08:36:00,
2013-02-09 03:41:00,36.7,34.3,29.70,NNW,337,0.0,0.0,91,0.00,,,0.00,WUHU21623XXSP,2013-02-09 08:41:00,
2013-02-09 03:46:00,36.7,34.3,29.70,NNW,337,0.0,0.0,91,0.00,,,0.00,WUHU21623XXSP,2013-02-09 08:46:00,
2013-02-09 03:51:00,36.5,34.1,29.70,NNW,337,0.0,0.0,91,0.00,,,0.00,WUHU21623XXSP,2013-02-09 08:51:00,
2013-02-09 03:56:00,36.3,33.9,29.71,NNW,337,0.0,0.0,91,0.00,,,0.00,WUHU21623XXSP,2013-02-09 08:56:00,
2013-02-09 04:01:00,36.1,33.7,29.71,NNW,337,0.0,0.0,91,0.00,,,0.00,WUHU21623XXSP,2013-02-09 09:01:00,
2013-02-09 04:06:00,36.1,34.0,29.71,NNW,337,0.0,0.0,92,0.00,,,0.00,WUHU21623XXSP,2013-02-09 09:06:00,
2013-02-09 04:11:00,36.1,34.0,29.71,NNW,337,0.0,0.0,92,0.00,,,0.00,WUHU21623XXSP,2013-02-09 09:11:00,
2013-02-09 04:16:00,36.1,34.0,29.72,NNW,337,0.0,0.0,92,0.00,,,0.00,WUHU21623XXSP,2013-02-09 09:16:00,
2013-02-09 04:21:00,36.1,34.0,29.72,NNW,337,0.0,0.0,92,0.00,,,0.00,WUHU21623XXSP,2013-02-09 09:21:00,
2013-02-09 04:26:00,36.1,34.0,29.72,NNW,337,0.0,0.0,92,0.00,,,0.00,WUHU21623XXSP,2013-02-09 09:26:00,
2013-02-09 04:31:00,36.0,33.8,29.72,NNW,337,0.0,0.0,92,0.00,,,0.00,WUHU21623XXSP,2013-02-09 09:31:00,
2013-02-09 04:36:00,35.8,33.6,29.72,NNW,337,0.0,0.0,92,0.00,,,0.00,WUHU21623XXSP,2013-02-09 09:36:00,
2013-02-09 04:41:00,35.8,33.6,29.72,NNW,337,0.0,0.0,92,0.00,,,0.00,WUHU21623XXSP,2013-02-09 09:41:00,
2013-02-09 04:46:00,35.4,33.3,29.72,NNW,337,0.0,0.0,92,0.00,,,0.00,WUHU21623XXSP,2013-02-09 09:46:00,
2013-02-09 04:51:00,35.2,33.1,29.73,NNW,337,0.0,0.0,92,0.00,,,0.00,WUHU21623XXSP,2013-02-09 09:51:00,
2013-02-09 04:56:00,34.9,32.7,29.73,NNW,337,0.0,0.0,92,0.00,,,0.00,WUHU21623XXSP,2013-02-09 09:56:00,
2013-02-09 05:01:00,34.5,32.4,29.73,NNW,337,0.0,0.0,92,0.00,,,0.00,WUHU21623XXSP,2013-02-09 10:01:00,
2013-02-09 05:06:00,34.3,31.9,29.73,NNW,337,0.0,0.0,91,0.00,,,0.00,WUHU21623XXSP,2013-02-09 10:06:00,
2013-02-09 05:11:00,34.3,31.9,29.73,NNW,337,0.0,0.0,91,0.00,,,0.00,WUHU21623XXSP,2013-02-09 10:11:00,
2013-02-09 05:16:00,34.0,31.6,29.74,NNW,337,0.0,0.0,91,0.00,,,0.00,WUHU21623XXSP,2013-02-09 10:16:00,
2013-02-09 05:21:00,34.0,31.6,29.74,NNW,337,0.0,0.0,91,0.00,,,0.00,WUHU21623XXSP,2013-02-09 10:21:00,
2013-02-09 05:26:00,33.8,31.4,29.74,NNW,337,0.0,0.0,91,0.00,,,0.00,WUHU21623XXSP,2013-02-09 10:26:00,
2013-02-09 05:31:00,33.4,31.0,29.75,NNW,337,0.0,0.0,91,0.00,,,0.00,WUHU21623XXSP,2013-02-09 10:31:00,
2013-02-09 05:36:00,33.4,31.0,29.74,NNW,337,0.0,0.0,91,0.00,,,0.00,WUHU21623XXSP,2013-02-09 10:36:00,
2013-02-09 05:41:00,33.1,30.7,29.74,NNW,337,0.0,0.0,91,0.00,,,0.00,WUHU21623XXSP,2013-02-09 10:41:00,
2013-02-09 05:46:00,32.9,30.5,29.75,NNW,337,0.0,0.0,91,0.00,,,0.00,WUHU21623XXSP,2013-02-09 10:46:00,
2013-02-09 05:51:00,32.7,30.6,29.75,NNW,337,0.0,0.0,92,0.00,,,0.00,WUHU21623XXSP,2013-02-09 10:51:00,
2013-02-09 05:56:00,32.7,30.6,29.75,NNW,337,0.0,0.0,92,0.00,,,0.00,WUHU21623XXSP,2013-02-09 10:56:00,
2013-02-09 06:01:00,32.7,30.6,29.75,NNW,337,0.0,0.0,92,0.00,,,0.00,WUHU21623XXSP,2013-02-09 11:01:00,
2013-02-09 06:06:00,33.1,31.0,29.75,NNW,337,0.0,0.0,92,0.00,,,0.00,WUHU21623XXSP,2013-02-09 11:06:00,
2013-02-09 06:11:00,33.1,31.0,29.76,NNW,337,0.0,0.0,92,0.00,,,0.00,WUHU21623XXSP,2013-02-09 11:11:00,
2013-02-09 06:16:00,33.1,31.0,29.76,NNW,337,0.0,0.0,92,0.00,,,0.00,WUHU21623XXSP,2013-02-09 11:16:00,
2013-02-09 06:21:00,32.9,30.8,29.76,NNW,337,0.0,0.0,92,0.00,,,0.00,WUHU21623XXSP,2013-02-09 11:21:00,
2013-02-09 06:26:00,32.7,30.6,29.76,NNW,337,0.0,0.0,92,0.00,,,0.00,WUHU21623XXSP,2013-02-09 11:26:00,
2013-02-09 06:31:00,32.7,30.6,29.76,NNW,337,0.0,0.0,92,0.00,,,0.00,WUHU21623XXSP,2013-02-09 11:31:00,
2013-02-09 06:36:00,32.4,30.3,29.76,NNW,337,0.0,0.0,92,0.00,,,0.00,WUHU21623XXSP,2013-02-09 11:36:00,
2013-02-09 06:41:00,31.8,29.8,29.76,NNW,337,0.0,0.0,92,0.00,,,0.00,WUHU21623XXSP,2013-02-09 11:41:00,
2013-02-09 06:46:00,31.8,29.8,29.76,NNW,337,0.0,0.0,92,0.00,,,0.00,WUHU21623XXSP,2013-02-09 11:46:00,
2013-02-09 06:51:00,32.2,30.1,29.76,NNW,337,0.0,0.0,92,0.00,,,0.00,WUHU21623XXSP,2013-02-09 11:51:00,
2013-02-09 06:56:00,32.7,30.6,29.77,NNW,337,0.0,0.0,92,0.00,,,0.00,WUHU21623XXSP,2013-02-09 11:56:00,
2013-02-09 07:01:00,32.9,30.5,29.77,NNW,337,0.0,0.0,91,0.00,,,0.00,WUHU21623XXSP,2013-02-09 12:01:00,
2013-02-09 07:06:00,32.9,30.5,29.77,NNW,337,0.0,0.0,91,0.00,,,0.00,WUHU21623XXSP,2013-02-09 12:06:00,
2013-02-09 07:11:00,32.7,30.4,29.78,NNW,337,0.0,0.0,91,0.00,,,0.00,WUHU21623XXSP,2013-02-09 12:11:00,
2013-02-09 07:16:00,32.7,30.4,29.77,NNW,337,0.0,0.0,91,0.00,,,0.00,WUHU21623XXSP,2013-02-09 12:16:00,
2013-02-09 07:21:00,32.7,30.4,29.78,NNW,337,0.0,0.0,91,0.00,,,0.00,WUHU21623XXSP,2013-02-09 12:21:00,
2013-02-09 07:26:00,32.7,30.4,29.78,NNW,337,0.0,0.0,91,0.00,,,0.00,WUHU21623XXSP,2013-02-09 12:26:00,
2013-02-09 07:31:00,32.5,30.2,29.78,NNW,337,0.0,0.0,91,0.00,,,0.00,WUHU21623XXSP,2013-02-09 12:31:00,
2013-02-09 07:36:00,32.4,30.3,29.78,NNW,337,0.0,0.0,92,0.00,,,0.00,WUHU21623XXSP,2013-02-09 12:36:00,
2013-02-09 07:41:00,32.4,30.3,29.79,NNW,337,0.0,0.0,92,0.00,,,0.00,WUHU21623XXSP,2013-02-09 12:41:00,
2013-02-09 07:46:00,32.7,30.6,29.78,NNW,337,0.0,0.0,92,0.00,,,0.00,WUHU21623XXSP,2013-02-09 12:46:00,
2013-02-09 07:51:00,32.7,30.6,29.79,NNW,337,0.0,0.0,92,0.00,,,0.00,WUHU21623XXSP,2013-02-09 12:51:00,
2013-02-09 07:56:00,33.1,31.0,29.79,NNW,337,0.0,0.0,92,0.00,,,0.00,WUHU21623XXSP,2013-02-09 12:56:00,
2013-02-09 08:01:00,33.3,31.1,29.79,NNW,337,0.0,0.0,92,0.00,,,0.00,WUHU21623XXSP,2013-02-09 13:01:00,
2013-02-09 08:06:00,33.8,31.4,29.80,NNW,337,0.0,0.0,91,0.00,,,0.00,WUHU21623XXSP,2013-02-09 13:06:00,
2013-02-09 08:12:00,35.2,32.8,29.80,NNW,337,0.0,0.0,91,0.00,,,0.00,WUHU21623XXSP,2013-02-09 13:12:00,
2013-02-09 08:16:00,37.0,34.1,29.80,NNW,337,0.0,0.0,89,0.00,,,0.00,WUHU21623XXSP,2013-02-09 13:16:00,
2013-02-09 08:22:00,39.0,35.2,29.80,NNW,337,0.0,0.0,86,0.00,,,0.00,WUHU21623XXSP,2013-02-09 13:22:00,
2013-02-09 08:27:00,40.8,37.2,29.80,NNW,337,0.0,0.0,87,0.00,,,0.00,WUHU21623XXSP,2013-02-09 13:27:00,
2013-02-09 08:32:00,42.1,39.1,29.80,NNW,337,0.0,0.0,89,0.00,,,0.00,WUHU21623XXSP,2013-02-09 13:32:00,
2013-02-09 08:37:00,43.2,40.7,29.81,NNW,337,0.0,0.0,91,0.00,,,0.00,WUHU21623XXSP,2013-02-09 13:37:00,
2013-02-09 08:42:00,44.4,42.3,29.81,North,0,0.0,1.8,92,0.00,,,0.00,WUHU21623XXSP,2013-02-09 13:42:00,
2013-02-09 08:47:00,45.5,43.1,29.81,North,0,0.0,3.1,91,0.00,,,0.00,WUHU21623XXSP,2013-02-09 13:47:00,
2013-02-09 08:52:00,46.2,42.6,29.81,North,0,0.0,3.1,87,0.00,,,0.00,WUHU21623XXSP,2013-02-09 13:52:00,
2013-02-09 08:57:00,47.8,43.2,29.82,NNE,22,0.0,0.0,84,0.00,,,0.00,WUHU21623XXSP,2013-02-09 13:57:00,
2013-02-09 09:02:00,48.2,41.9,29.82,NNE,22,0.0,2.0,79,0.00,,,0.00,WUHU21623XXSP,2013-02-09 14:02:00,
2013-02-09 09:07:00,48.9,42.0,29.82,SE,135,0.0,2.7,77,0.00,,,0.00,WUHU21623XXSP,2013-02-09 14:07:00,
2013-02-09 09:12:00,49.1,40.8,29.82,NE,45,0.0,3.6,73,0.00,,,0.00,WUHU21623XXSP,2013-02-09 14:12:00,
2013-02-09 09:17:00,49.6,40.6,29.82,NNE,22,0.0,4.9,71,0.00,,,0.00,WUHU21623XXSP,2013-02-09 14:17:00,
2013-02-09 09:22:00,49.8,39.7,29.83,NNE,22,0.0,4.9,68,0.00,,,0.00,WUHU21623XXSP,2013-02-09 14:22:00,
2013-02-09 09:27:00,50.2,39.1,29.83,NE,45,0.0,4.5,66,0.00,,,0.00,WUHU21623XXSP,2013-02-09 14:27:00,
2013-02-09 09:32:00,50.5,40.0,29.83,NE,45,0.0,2.5,67,0.00,,,0.00,WUHU21623XXSP,2013-02-09 14:32:00,
2013-02-09 09:37:00,51.1,40.1,29.83,SE,135,0.0,4.5,66,0.00,,,0.00,WUHU21623XXSP,2013-02-09 14:37:00,
2013-02-09 09:42:00,51.6,40.2,29.83,ENE,67,0.0,4.5,65,0.00,,,0.00,WUHU21623XXSP,2013-02-09 14:42:00,
2013-02-09 09:47:00,52.2,40.7,29.83,SE,135,0.0,3.1,65,0.00,,,0.00,WUHU21623XXSP,2013-02-09 14:47:00,
2013-02-09 09:52:00,53.2,41.7,29.83,SE,135,0.0,0.9,65,0.00,,,0.00,WUHU21623XXSP,2013-02-09 14:52:00,
2013-02-09 09:57:00,54.3,41.5,29.84,East,90,0.0,0.0,62,0.00,,,0.00,WUHU21623XXSP,2013-02-09 14:57:00,
2013-02-09 10:02:00,55.2,42.0,29.84,ENE,67,0.0,0.0,61,0.00,,,0.00,WUHU21623XXSP,2013-02-09 15:02:00,
2013-02-09 10:07:00,53.4,39.0,29.84,NNE,22,0.0,2.9,58,0.00,,,0.00,WUHU21623XXSP,2013-02-09 15:07:00,
2013-02-09 10:12:00,52.7,38.3,29.85,ENE,67,0.0,2.9,58,0.00,,,0.00,WUHU21623XXSP,2013-02-09 15:12:00,
2013-02-09 10:17:00,53.2,37.9,29.84,ENE,67,0.0,2.9,56,0.00,,,0.00,WUHU21623XXSP,2013-02-09 15:17:00,
2013-02-09 10:22:00,54.0,40.0,29.84,SE,135,0.0,1.6,59,0.00,,,0.00,WUHU21623XXSP,2013-02-09 15:22:00,
2013-02-09 10:27:00,55.2,39.2,29.84,SSE,157,0.0,4.7,55,0.00,,,0.00,WUHU21623XXSP,2013-02-09 15:27:00,
2013-02-09 10:32:00,55.8,39.3,29.84,NE,45,0.0,4.7,54,0.00,,,0.00,WUHU21623XXSP,2013-02-09 15:32:00,
2013-02-09 10:37:00,56.5,39.1,29.84,ENE,67,0.0,4.9,52,0.00,,,0.00,WUHU21623XXSP,2013-02-09 15:37:00,
2013-02-09 10:42:00,57.2,38.3,29.84,NNE,22,0.0,5.1,49,0.00,,,0.00,WUHU21623XXSP,2013-02-09 15:42:00,
2013-02-09 10:47:00,57.9,38.3,29.84,North,0,0.0,5.1,48,0.00,,,0.00,WUHU21623XXSP,2013-02-09 15:47:00,
2013-02-09 10:52:00,58.3,38.1,29.84,NE,45,0.0,3.6,47,0.00,,,0.00,WUHU21623XXSP,2013-02-09 15:52:00,
2013-02-09 10:57:00,58.6,37.3,29.84,NNE,22,0.0,3.6,45,0.00,,,0.00,WUHU21623XXSP,2013-02-09 15:57:00,
2013-02-09 11:02:00,59.7,37.7,29.84,ESE,112,0.0,4.9,44,0.00,,,0.00,WUHU21623XXSP,2013-02-09 16:02:00,
2013-02-09 11:07:00,60.4,38.9,29.84,ENE,67,0.0,4.9,45,0.00,,,0.00,WUHU21623XXSP,2013-02-09 16:07:00,
2013-02-09 11:12:00,61.0,37.6,29.83,ESE,112,5.6,5.6,42,0.00,,,0.00,WUHU21623XXSP,2013-02-09 16:12:00,
2013-02-09 11:18:00,61.9,38.4,29.84,NE,45,0.0,5.6,42,0.00,,,0.00,WUHU21623XXSP,2013-02-09 16:18:00,
2013-02-09 11:23:00,62.6,37.9,29.84,NE,45,0.0,2.2,40,0.00,,,0.00,WUHU21623XXSP,2013-02-09 16:23:00,
2013-02-09 11:28:00,63.5,38.0,29.84,North,0,0.0,3.8,39,0.00,,,0.00,WUHU21623XXSP,2013-02-09 16:28:00,
2013-02-09 11:33:00,64.6,39.0,29.84,NNE,22,0.0,3.8,39,0.00,,,0.00,WUHU21623XXSP,2013-02-09 16:33:00,
2013-02-09 11:38:00,65.1,39.5,29.84,East,90,0.0,1.8,39,0.00,,,0.00,WUHU21623XXSP,2013-02-09 16:38:00,
2013-02-09 11:43:00,65.8,38.7,29.84,ESE,112,0.2,7.4,37,0.00,,,0.00,WUHU21623XXSP,2013-02-09 16:43:00,
2013-02-09 11:48:00,66.0,39.6,29.83,SE,135,0.0,7.4,38,0.00,,,0.00,WUHU21623XXSP,2013-02-09 16:48:00,
2013-02-09 11:53:00,67.3,39.2,29.83,SE,135,0.0,5.1,36,0.00,,,0.00,WUHU21623XXSP,2013-02-09 16:53:00,
2013-02-09 11:58:00,68.4,40.2,29.83,East,90,0.0,5.1,36,0.00,,,0.00,WUHU21623XXSP,2013-02-09 16:58:00,
2013-02-09 12:03:00,69.6,40.6,29.83,SE,135,0.0,5.1,35,0.00,,,0.00,WUHU21623XXSP,2013-02-09 17:03:00,
2013-02-09 12:08:00,70.2,40.3,29.83,ESE,112,0.0,4.7,34,0.00,,,0.00,WUHU21623XXSP,2013-02-09 17:08:00,
2013-02-09 12:13:00,70.2,40.3,29.83,SSE,157,0.0,5.4,34,0.00,,,0.00,WUHU21623XXSP,2013-02-09 17:13:00,
2013-02-09 12:18:00,70.3,40.5,29.83,SSE,157,0.0,5.4,34,0.00,,,0.00,WUHU21623XXSP,2013-02-09 17:18:00,
2013-02-09 12:23:00,70.5,40.6,29.83,SE,135,0.0,4.7,34,0.00,,,0.00,WUHU21623XXSP,2013-02-09 17:23:00,
2013-02-09 12:28:00,72.3,41.5,29.83,ENE,67,0.0,4.7,33,0.00,,,0.00,WUHU21623XXSP,2013-02-09 17:28:00,
2013-02-09 12:33:00,73.2,41.5,29.83,South,180,4.5,4.5,32,0.00,,,0.00,WUHU21623XXSP,2013-02-09 17:33:00,
2013-02-09 12:38:00,73.6,41.8,29.82,SE,135,0.0,4.5,32,0.00,,,0.00,WUHU21623XXSP,2013-02-09 17:38:00,
2013-02-09 12:43:00,74.5,42.6,29.82,SE,135,3.8,4.5,32,0.00,,,0.00,WUHU21623XXSP,2013-02-09 17:43:00,
2013-02-09 12:48:00,75.7,43.0,29.82,ESE,112,0.0,4.0,31,0.00,,,0.00,WUHU21623XXSP,2013-02-09 17:48:00,
2013-02-09 12:53:00,75.6,42.0,29.82,SE,135,0.0,6.5,30,0.00,,,0.00,WUHU21623XXSP,2013-02-09 17:53:00,
2013-02-09 12:58:00,75.4,40.8,29.82,NE,45,0.0,6.5,29,0.00,,,0.00,WUHU21623XXSP,2013-02-09 17:58:00,
2013-02-09 13:03:00,76.1,42.5,29.82,West,270,0.0,4.3,30,0.00,,,0.00,WUHU21623XXSP,2013-02-09 18:03:00,
2013-02-09 13:08:00,77.0,42.3,29.81,WSW,247,0.0,4.0,29,0.00,,,0.00,WUHU21623XXSP,2013-02-09 18:08:00,
2013-02-09 13:13:00,77.5,42.7,29.81,WSW,247,0.0,3.6,29,0.00,,,0.00,WUHU21623XXSP,2013-02-09 18:13:00,
2013-02-09 13:18:00,78.1,43.2,29.81,WSW,247,0.0,2.7,29,0.00,,,0.00,WUHU21623XXSP,2013-02-09 18:18:00,
2013-02-09 13:23:00,79.3,43.2,29.81,WSW,247,0.0,2.7,28,0.00,,,0.00,WUHU21623XXSP,2013-02-09 18:23:00,
2013-02-09 13:28:00,80.4,44.1,29.81,WSW,247,0.0,0.0,28,0.00,,,0.00,WUHU21623XXSP,2013-02-09 18:28:00,
2013-02-09 13:33:00,79.9,42.6,29.81,WSW,247,0.0,3.6,27,0.00,,,0.00,WUHU21623XXSP,2013-02-09 18:33:00,
2013-02-09 13:38:00,79.7,42.5,29.81,WSW,247,0.0,3.6,27,0.00,,,0.00,WUHU21623XXSP,2013-02-09 18:38:00,
2013-02-09 13:43:00,79.7,42.5,29.81,WSW,247,0.0,3.8,27,0.00,,,0.00,WUHU21623XXSP,2013-02-09 18:43:00,
2013-02-09 13:48:00,80.2,42.9,29.81,WSW,247,0.0,3.4,27,0.00,,,0.00,WUHU21623XXSP,2013-02-09 18:48:00,
2013-02-09 13:53:00,80.8,42.4,29.81,WSW,247,0.0,3.6,26,0.00,,,0.00,WUHU21623XXSP,2013-02-09 18:53:00,
2013-02-09 13:58:00,81.0,42.5,29.81,WSW,247,0.9,4.7,26,0.00,,,0.00,WUHU21623XXSP,2013-02-09 18:58:00,
2013-02-09 14:03:00,80.2,41.9,29.81,ENE,67,2.2,4.7,26,0.00,,,0.00,WUHU21623XXSP,2013-02-09 19:03:00,
2013-02-09 14:08:00,75.9,39.3,29.80,WSW,247,0.0,3.8,27,0.00,,,0.00,WUHU21623XXSP,2013-02-09 19:08:00,
2013-02-09 14:13:00,76.5,39.7,29.80,East,90,0.0,2.2,27,0.00,,,0.00,WUHU21623XXSP,2013-02-09 19:13:00,
2013-02-09 14:18:00,78.1,41.1,29.80,WSW,247,0.0,0.0,27,0.00,,,0.00,WUHU21623XXSP,2013-02-09 19:18:00,
2013-02-09 14:23:00,74.1,38.7,29.80,WSW,247,2.5,7.4,28,0.00,,,0.00,WUHU21623XXSP,2013-02-09 19:23:00,
2013-02-09 14:28:00,71.2,36.3,29.79,SSE,157,0.0,7.4,28,0.00,,,0.00,WUHU21623XXSP,2013-02-09 19:28:00,
2013-02-09 14:33:00,74.5,39.5,29.79,South,180,0.0,6.9,29,0.00,,,0.00,WUHU21623XXSP,2013-02-09 19:33:00,
2013-02-09 14:38:00,77.7,40.8,29.79,WSW,247,0.0,3.8,27,0.00,,,0.00,WUHU21623XXSP,2013-02-09 19:38:00,
2013-02-09 14:43:00,78.6,40.5,29.78,WSW,247,0.0,3.6,26,0.00,,,0.00,WUHU21623XXSP,2013-02-09 19:43:00,
2013-02-09 14:48:00,78.4,40.3,29.78,WSW,247,0.0,3.6,26,0.00,,,0.00,WUHU21623XXSP,2013-02-09 19:48:00,
2013-02-09 14:53:00,79.0,40.8,29.78,WSW,247,0.0,3.1,26,0.00,,,0.00,WUHU21623XXSP,2013-02-09 19:53:00,
2013-02-09 14:58:00,80.4,42.1,29.78,WSW,247,0.0,2.7,26,0.00,,,0.00,WUHU21623XXSP,2013-02-09 19:58:00,
2013-02-09 15:03:00,81.5,41.9,29.78,WSW,247,0.0,3.8,25,0.00,,,0.00,WUHU21623XXSP,2013-02-09 20:03:00,
2013-02-09 15:08:00,81.5,40.9,29.77,WSW,247,1.1,4.5,24,0.00,,,0.00,WUHU21623XXSP,2013-02-09 20:08:00,
2013-02-09 15:13:00,81.3,40.7,29.77,WSW,247,0.0,4.5,24,0.00,,,0.00,WUHU21623XXSP,2013-02-09 20:13:00,
2013-02-09 15:18:00,81.1,40.6,29.77,WSW,247,0.0,1.1,24,0.00,,,0.00,WUHU21623XXSP,2013-02-09 20:18:00,
2013-02-09 15:23:00,82.2,40.4,29.77,WSW,247,0.0,3.4,23,0.00,,,0.00,WUHU21623XXSP,2013-02-09 20:23:00,
2013-02-09 15:28:00,82.6,40.7,29.77,WSW,247,0.0,3.4,23,0.00,,,0.00,WUHU21623XXSP,2013-02-09 20:28:00,
2013-02-09 15:33:00,82.0,41.3,29.77,WSW,247,0.0,2.9,24,0.00,,,0.00,WUHU21623XXSP,2013-02-09 20:33:00,
2013-02-09 15:38:00,81.7,41.0,29.77,WSW,247,0.0,0.0,24,0.00,,,0.00,WUHU21623XXSP,2013-02-09 20:38:00,
2013-02-09 15:43:00,79.9,39.5,29.77,WSW,247,0.0,7.2,24,0.00,,,0.00,WUHU21623XXSP,2013-02-09 20:43:00,
2013-02-09 15:48:00,79.0,39.7,29.77,WSW,247,0.0,7.2,25,0.00,,,0.00,WUHU21623XXSP,2013-02-09 20:48:00,
2013-02-09 15:53:00,78.1,39.0,29.77,WSW,247,0.0,0.0,25,0.00,,,0.00,WUHU21623XXSP,2013-02-09 20:53:00,
2013-02-09 15:58:00,76.8,38.5,29.77,SE,135,0.0,0.0,26,0.00,,,0.00,WUHU21623XXSP,2013-02-09 20:58:00,
2013-02-09 16:03:00,73.9,36.5,29.77,SE,135,0.0,0.0,26,0.00,,,0.00,WUHU21623XXSP,2013-02-09 21:03:00,
2013-02-09 16:08:00,70.2,36.3,29.76,ESE,112,0.0,0.0,29,0.00,,,0.00,WUHU21623XXSP,2013-02-09 21:08:00,
2013-02-09 16:13:00,65.7,33.5,29.77,ESE,112,0.0,0.0,30,0.00,,,0.00,WUHU21623XXSP,2013-02-09 21:13:00,
2013-02-09 16:18:00,63.3,32.1,29.77,SW,225,0.0,4.5,31,0.00,,,0.00,WUHU21623XXSP,2013-02-09 21:18:00,
2013-02-09 16:23:00,62.2,32.6,29.78,SW,225,0.0,4.5,33,0.00,,,0.00,WUHU21623XXSP,2013-02-09 21:23:00,
2013-02-09 16:28:00,61.5,32.6,29.78,SE,135,0.0,0.0,34,0.00,,,0.00,WUHU21623XXSP,2013-02-09 21:28:00,
2013-02-09 16:33:00,60.6,31.8,29.77,SE,135,0.0,0.0,34,0.00,,,0.00,WUHU21623XXSP,2013-02-09 21:33:00,
2013-02-09 16:38:00,59.7,32.5,29.77,SE,135,0.0,0.0,36,0.00,,,0.00,WUHU21623XXSP,2013-02-09 21:38:00,
2013-02-09 16:43:00,60.1,32.8,29.77,SE,135,0.0,0.0,36,0.00,,,0.00,WUHU21623XXSP,2013-02-09 21:43:00,
2013-02-09 16:48:00,59.4,32.2,29.77,SSE,157,0.0,0.0,36,0.00,,,0.00,WUHU21623XXSP,2013-02-09 21:48:00,
2013-02-09 16:53:00,58.8,32.4,29.77,SSE,157,0.0,0.0,37,0.00,,,0.00,WUHU21623XXSP,2013-02-09 21:53:00,
2013-02-09 16:58:00,58.3,31.9,29.77,ESE,112,0.0,0.0,37,0.00,,,0.00,WUHU21623XXSP,2013-02-09 21:58:00,
2013-02-09 17:03:00,57.9,31.6,29.77,SE,135,0.0,0.0,37,0.00,,,0.00,WUHU21623XXSP,2013-02-09 22:03:00,
2013-02-09 17:09:00,57.7,31.5,29.77,SE,135,0.0,0.0,37,0.00,,,0.00,WUHU21623XXSP,2013-02-09 22:09:00,
2013-02-09 17:14:00,57.4,31.8,29.77,SSE,157,0.0,0.0,38,0.00,,,0.00,WUHU21623XXSP,2013-02-09 22:14:00,
2013-02-09 17:19:00,57.0,31.5,29.77,South,180,0.0,0.0,38,0.00,,,0.00,WUHU21623XXSP,2013-02-09 22:19:00,
2013-02-09 17:24:00,56.8,31.4,29.77,South,180,0.0,0.0,38,0.00,,,0.00,WUHU21623XXSP,2013-02-09 22:24:00,
2013-02-09 17:29:00,56.5,31.7,29.77,NW,315,0.0,0.0,39,0.00,,,0.00,WUHU21623XXSP,2013-02-09 22:29:00,
2013-02-09 17:34:00,56.1,31.4,29.77,NW,315,0.0,0.0,39,0.00,,,0.00,WUHU21623XXSP,2013-02-09 22:34:00,
2013-02-09 17:39:00,55.9,31.9,29.78,West,270,0.0,0.0,40,0.00,,,0.00,WUHU21623XXSP,2013-02-09 22:39:00,
2013-02-09 17:44:00,55.6,31.6,29.77,West,270,0.0,0.0,40,0.00,,,0.00,WUHU21623XXSP,2013-02-09 22:44:00,
2013-02-09 17:49:00,55.2,31.9,29.77,South,180,0.0,0.0,41,0.00,,,0.00,WUHU21623XXSP,2013-02-09 22:49:00,
2013-02-09 17:54:00,55.0,31.7,29.78,South,180,0.0,0.0,41,0.00,,,0.00,WUHU21623XXSP,2013-02-09 22:54:00,
2013-02-09 17:59:00,54.3,31.0,29.77,South,180,0.0,0.0,41,0.00,,,0.00,WUHU21623XXSP,2013-02-09 22:59:00,
2013-02-09 18:04:00,53.8,31.1,29.78,South,180,0.0,0.0,42,0.00,,,0.00,WUHU21623XXSP,2013-02-09 23:04:00,
2013-02-09 18:09:00,53.2,31.2,29.78,South,180,0.0,0.0,43,0.00,,,0.00,WUHU21623XXSP,2013-02-09 23:09:00,
2013-02-09 18:14:00,52.5,31.7,29.78,South,180,0.0,0.0,45,0.00,,,0.00,WUHU21623XXSP,2013-02-09 23:14:00,
2013-02-09 18:19:00,51.8,31.6,29.78,South,180,0.0,0.0,46,0.00,,,0.00,WUHU21623XXSP,2013-02-09 23:19:00,
2013-02-09 18:24:00,51.4,31.2,29.78,South,180,0.0,0.0,46,0.00,,,0.00,WUHU21623XXSP,2013-02-09 23:24:00,
2013-02-09 18:29:00,51.1,31.5,29.78,South,180,0.0,0.0,47,0.00,,,0.00,WUHU21623XXSP,2013-02-09 23:29:00,
2013-02-09 18:34:00,49.8,30.9,29.78,South,180,0.0,0.0,48,0.00,,,0.00,WUHU21623XXSP,2013-02-09 23:34:00,
2013-02-09 18:39:00,49.3,31.5,29.78,South,180,0.0,0.0,50,0.00,,,0.00,WUHU21623XXSP,2013-02-09 23:39:00,
2013-02-09 18:44:00,48.7,30.9,29.79,South,180,0.0,0.0,50,0.00,,,0.00,WUHU21623XXSP,2013-02-09 23:44:00,
2013-02-09 18:49:00,48.2,30.8,29.79,South,180,0.0,0.0,51,0.00,,,0.00,WUHU21623XXSP,2013-02-09 23:49:00,
2013-02-09 18:54:00,47.8,31.0,29.79,South,180,0.0,0.0,52,0.00,,,0.00,WUHU21623XXSP,2013-02-09 23:54:00,
2013-02-09 18:59:00,46.9,30.1,29.79,South,180,0.0,0.0,52,0.00,,,0.00,WUHU21623XXSP,2013-02-09 23:59:00,
2013-02-09 19:04:00,46.6,30.3,29.79,South,180,0.0,0.0,53,0.00,,,0.00,WUHU21623XXSP,2013-02-10 00:04:00,
2013-02-09 19:09:00,46.4,30.6,29.79,South,180,0.0,0.0,54,0.00,,,0.00,WUHU21623XXSP,2013-02-10 00:09:00,
2013-02-09 19:14:00,46.2,30.4,29.79,South,180,0.0,0.0,54,0.00,,,0.00,WUHU21623XXSP,2013-02-10 00:14:00,
2013-02-09 19:19:00,46.2,31.3,29.80,South,180,0.0,0.0,56,0.00,,,0.00,WUHU21623XXSP,2013-02-10 00:19:00,
2013-02-09 19:24:00,46.0,31.6,29.80,South,180,0.0,0.0,57,0.00,,,0.00,WUHU21623XXSP,2013-02-10 00:24:00,
2013-02-09 19:29:00,46.0,31.6,29.80,South,180,0.0,0.0,57,0.00,,,0.00,WUHU21623XXSP,2013-02-10 00:29:00,
2013-02-09 19:35:00,45.7,31.3,29.81,South,180,0.0,0.0,57,0.00,,,0.00,WUHU21623XXSP,2013-02-10 00:35:00,
2013-02-09 19:40:00,45.1,31.2,29.81,South,180,0.0,0.0,58,0.00,,,0.00,WUHU21623XXSP,2013-02-10 00:40:00,
2013-02-09 19:45:00,45.1,31.7,29.81,South,180,0.0,0.0,59,0.00,,,0.00,WUHU21623XXSP,2013-02-10 00:45:00,
2013-02-09 19:50:00,45.1,32.1,29.81,South,180,0.0,0.0,60,0.00,,,0.00,WUHU21623XXSP,2013-02-10 00:50:00,
2013-02-09 19:55:00,45.0,32.0,29.81,South,180,0.0,0.0,60,0.00,,,0.00,WUHU21623XXSP,2013-02-10 00:55:00,
2013-02-09 20:00:00,45.0,32.0,29.82,South,180,0.0,0.0,60,0.00,,,0.00,WUHU21623XXSP,2013-02-10 01:00:00,
2013-02-09 20:05:00,44.8,32.6,29.82,East,90,0.0,0.0,62,0.00,,,0.00,WUHU21623XXSP,2013-02-10 01:05:00,
2013-02-09 20:11:00,44.2,31.7,29.82,East,90,0.0,0.0,61,0.00,,,0.00,WUHU21623XXSP,2013-02-10 01:11:00,
2013-02-09 20:16:00,43.9,31.7,29.83,East,90,0.0,0.0,62,0.00,,,0.00,WUHU21623XXSP,2013-02-10 01:16:00,
2013-02-09 20:21:00,43.5,31.3,29.83,East,90,0.0,0.0,62,0.00,,,0.00,WUHU21623XXSP,2013-02-10 01:21:00,
2013-02-09 20:26:00,43.2,31.4,29.83,East,90,0.0,0.0,63,0.00,,,0.00,WUHU21623XXSP,2013-02-10 01:26:00,
2013-02-09 20:31:00,43.3,31.2,29.83,East,90,0.0,0.0,62,0.00,,,0.00,WUHU21623XXSP,2013-02-10 01:31:00,
2013-02-09 20:36:00,43.3,31.2,29.83,East,90,0.0,0.0,62,0.00,,,0.00,WUHU21623XXSP,2013-02-10 01:36:00,
2013-02-09 20:41:00,43.5,30.9,29.83,East,90,0.0,0.0,61,0.00,,,0.00,WUHU21623XXSP,2013-02-10 01:41:00,
2013-02-09 20:46:00,43.5,30.6,29.83,East,90,0.0,0.0,60,0.00,,,0.00,WUHU21623XXSP,2013-02-10 01:46:00,
2013-02-09 20:51:00,43.7,30.3,29.84,East,90,0.0,0.0,59,0.00,,,0.00,WUHU21623XXSP,2013-02-10 01:51:00,
2013-02-09 20:56:00,44.2,30.4,29.83,East,90,0.0,0.0,58,0.00,,,0.00,WUHU21623XXSP,2013-02-10 01:56:00,
2013-02-09 21:01:00,44.4,30.1,29.83,East,90,0.0,0.0,57,0.00,,,0.00,WUHU21623XXSP,2013-02-10 02:01:00,
2013-02-09 21:06:00,44.4,29.7,29.83,East,90,0.0,0.0,56,0.00,,,0.00,WUHU21623XXSP,2013-02-10 02:06:00,
2013-02-09 21:11:00,44.4,29.2,29.83,East,90,0.0,0.0,55,0.00,,,0.00,WUHU21623XXSP,2013-02-10 02:11:00,
2013-02-09 21:16:00,44.4,29.2,29.84,East,90,0.0,0.0,55,0.00,,,0.00,WUHU21623XXSP,2013-02-10 02:16:00,
2013-02-09 21:21:00,44.4,28.8,29.84,East,90,0.0,0.0,54,0.00,,,0.00,WUHU21623XXSP,2013-02-10 02:21:00,
2013-02-09 21:26:00,44.6,28.5,29.84,East,90,0.0,0.0,53,0.00,,,0.00,WUHU21623XXSP,2013-02-10 02:26:00,
2013-02-09 21:31:00,44.8,28.7,29.84,East,90,0.0,0.0,53,0.00,,,0.00,WUHU21623XXSP,2013-02-10 02:31:00,
2013-02-09 21:37:00,44.8,28.2,29.84,East,90,0.0,0.0,52,0.00,,,0.00,WUHU21623XXSP,2013-02-10 02:37:00,
2013-02-09 21:42:00,45.1,28.5,29.84,East,90,0.0,0.0,52,0.00,,,0.00,WUHU21623XXSP,2013-02-10 02:42:00,
2013-02-09 21:47:00,45.1,28.1,29.84,East,90,0.0,0.0,51,0.00,,,0.00,WUHU21623XXSP,2013-02-10 02:47:00,
2013-02-09 21:52:00,45.1,28.1,29.84,East,90,0.0,0.0,51,0.00,,,0.00,WUHU21623XXSP,2013-02-10 02:52:00,
2013-02-09 21:57:00,45.1,28.1,29.84,East,90,0.0,0.0,51,0.00,,,0.00,WUHU21623XXSP,2013-02-10 02:57:00,
2013-02-09 22:02:00,45.0,27.9,29.84,East,90,0.0,0.0,51,0.00,,,0.00,WUHU21623XXSP,2013-02-10 03:02:00,
2013-02-09 22:07:00,45.0,27.9,29.84,East,90,0.0,0.0,51,0.00,,,0.00,WUHU21623XXSP,2013-02-10 03:07:00,
2013-02-09 22:12:00,44.8,27.8,29.84,East,90,0.0,0.0,51,0.00,,,0.00,WUHU21623XXSP,2013-02-10 03:12:00,
2013-02-09 22:18:00,44.6,27.6,29.84,East,90,0.0,0.0,51,0.00,,,0.00,WUHU21623XXSP,2013-02-10 03:18:00,
2013-02-09 22:23:00,44.4,27.4,29.83,East,90,0.0,0.0,51,0.00,,,0.00,WUHU21623XXSP,2013-02-10 03:23:00,
2013-02-09 22:28:00,44.4,27.4,29.84,East,90,0.0,0.0,51,0.00,,,0.00,WUHU21623XXSP,2013-02-10 03:28:00,
2013-02-09 22:33:00,44.1,27.1,29.83,East,90,0.0,0.0,51,0.00,,,0.00,WUHU21623XXSP,2013-02-10 03:33:00,
2013-02-09 22:38:00,43.9,27.4,29.83,East,90,0.0,0.0,52,0.00,,,0.00,WUHU21623XXSP,2013-02-10 03:38:00,
2013-02-09 22:43:00,43.5,27.0,29.83,East,90,0.0,0.0,52,0.00,,,0.00,WUHU21623XXSP,2013-02-10 03:43:00,
2013-02-09 22:48:00,43.3,26.9,29.83,East,90,0.0,0.0,52,0.00,,,0.00,WUHU21623XXSP,2013-02-10 03:48:00,
2013-02-09 22:53:00,43.2,26.7,29.83,East,90,0.0,0.0,52,0.00,,,0.00,WUHU21623XXSP,2013-02-10 03:53:00,
2013-02-09 22:58:00,43.0,27.0,29.83,East,90,0.0,0.0,53,0.00,,,0.00,WUHU21623XXSP,2013-02-10 03:58:00,
2013-02-09 23:03:00,43.0,27.0,29.83,East,90,0.0,0.0,53,0.00,,,0.00,WUHU21623XXSP,2013-02-10 04:03:00,
2013-02-09 23:08:00,43.0,27.0,29.83,East,90,0.0,0.0,53,0.00,,,0.00,WUHU21623XXSP,2013-02-10 04:08:00,
2013-02-09 23:13:00,42.6,27.1,29.83,East,90,0.0,0.0,54,0.00,,,0.00,WUHU21623XXSP,2013-02-10 04:13:00,
2013-02-09 23:18:00,42.4,26.9,29.83,East,90,0.0,0.0,54,0.00,,,0.00,WUHU21623XXSP,2013-02-10 04:18:00,
2013-02-09 23:23:00,42.3,26.7,29.83,East,90,0.0,0.0,54,0.00,,,0.00,WUHU21623XXSP,2013-02-10 04:23:00,
2013-02-09 23:28:00,42.1,26.5,29.83,East,90,0.0,0.0,54,0.00,,,0.00,WUHU21623XXSP,2013-02-10 04:28:00,
2013-02-09 23:33:00,41.9,26.4,29.83,East,90,0.0,0.0,54,0.00,,,0.00,WUHU21623XXSP,2013-02-10 04:33:00,
2013-02-09 23:38:00,41.7,26.7,29.83,East,90,0.0,0.0,55,0.00,,,0.00,WUHU21623XXSP,2013-02-10 04:38:00,
2013-02-09 23:43:00,41.7,26.7,29.83,East,90,0.0,0.0,55,0.00,,,0.00,WUHU21623XXSP,2013-02-10 04:43:00,
2013-02-09 23:48:00,42.1,26.5,29.83,East,90,0.0,0.0,54,0.00,,,0.00,WUHU21623XXSP,2013-02-10 04:48:00,
2013-02-09 23:53:00,42.4,26.9,29.84,East,90,0.0,0.0,54,0.00,,,0.00,WUHU21623XXSP,2013-02-10 04:53:00,
2013-02-09 23:58:00,42.8,27.2,29.84,East,90,0.0,0.0,54,0.00,,,0.00,WUHU21623XXSP,2013-02-10 04:58:00,